Lid_Strength_Index
3 3 3 3 3 4 4 4 4 4 4 4 4 6 6 6 6 9 10 6 5 3 6 9 7 6 5 5 5 4 9 11 10 11 11 10 12 9 8 8 8 7 8 10 9
3 3 3 3 3 3 3 4 3 3 3 4 5 4 4 7 11 11 6 4 3 5 10 11 9 7 8 8 7 6 9 10 11 12 12 12 11 11 10 9 8 10 10 10 10
3 3 3 3 3 3 3 3 3 2 2 2 4 5 6 8 12 12 5 4 4 7 10 10 9 9 11 10 10 10 10 12 13 13 13 12 12 11 12 10 10 12 12 12 11
3 3 3 3 3 3 3 3 3 3 3 3 3 6 8 10 15 11 6 5 5 8 9 10 11 12 12 13 12 12 13 13 14 13 13 14 13 13 12 11 11 11 11 11 11
3 3 3 3 3 3 3 3 3 3 3 3 3 7 10 13 14 9 7 8 8 9 11 12 13 13 14 13 13 14 14 13 14 14 13 13 13 14 12 11 11 11 11 11 11
3 3 3 3 3 4 4 4 4 4 4 5 5 6 11 15 10 9 10 9 10 9 11 11 12 11 13 14 14 13 13 14 14 14 14 14 13 12 12 11 12 12 12 11 11
4 3 3 3 3 4 4 4 4 4 4 5 7 10 12 14 10 9 10 10 10 10 11 11 11 12 13 14 14 14 15 14 15 14 14 13 14 14 12 12 12 12 11 10 10
4 4 4 4 4 5 5 5 5 5 5 6 8 11 14 10 9 10 9 11 10 10 10 10 10 12 14 13 14 16 15 16 15 14 14 14 15 13 12 13 13 12 11 11 9
3 3 4 4 4 5 5 6 6 6 7 9 10 11 15 10 12 11 10 12 11 11 10 10 11 13 13 15 15 16 17 18 16 15 15 15 15 12 11 13 13 12 11 11 10
4 3 4 4 5 5 6 7 7 8 9 11 11 12 13 14 12 12 10 11 12 12 12 12 13 14 14 15 18 18 18 18 18 16 15 15 15 13 12 13 13 12 11 11 11
4 4 4 4 5 6 8 9 10 11 12 15 14 15 14 12 11 12 11 12 12 13 15 14 15 17 17 16 17 18 18 18 17 16 17 16 15 13 12 12 13 12 12 11 11
4 4 4 5 6 7 8 12 12 12 16 14 14 14 13 13 15 13 11 14 14 16 16 15 18 17 16 16 17 17 18 18 16 16 17 16 16 13 13 13 12 12 12 12 11
5 5 5 6 8 9 10 11 10 11 15 16 15 15 15 13 16 15 13 15 16 16 17 17 17 16 17 17 17 17 18 18 19 17 16 17 15 15 13 13 12 11 11 11 11
6 6 7 8 9 11 12 10 10 12 14 16 17 15 14 14 16 14 13 14 16 17 17 18 17 17 17 18 17 19 17 18 19 18 18 16 18 15 14 14 13 12 11 11 10
6 7 8 9 12 13 12 10 11 13 17 18 17 13 14 16 16 15 13 14 17 17 17 18 18 18 18 18 16 17 16 18 18 19 19 18 19 15 15 15 13 12 12 11 10
6 7 8 10 11 12 11 11 13 15 19 19 18 18 17 16 17 16 15 13 14 17 17 18 16 16 17 16 16 16 17 19 19 19 19 19 19 16 15 14 13 12 11 11 10
6 7 9 10 13 11 12 13 15 16 19 18 18 19 19 19 18 18 18 17 18 16 18 18 18 17 16 18 17 16 18 18 18 18 18 19 19 16 14 13 13 13 11 11 10
6 8 10 11 11 12 13 14 18 20 20 20 19 20 20 19 19 19 19 18 18 19 20 20 18 18 17 18 19 18 19 19 22 22 20 18 21 15 13 13 12 11 11 11 10
7 8 9 10 11 12 13 16 16 18 19 19 20 20 20 20 20 19 20 19 18 18 17 19 19 18 17 17 17 19 19 19 21 22 23 19 17 14 13 14 13 12 11 10 10
8 9 10 10 11 12 14 16 17 18 18 18 18 19 17 20 20 19 20 18 18 17 19 20 20 19 18 17 17 18 17 20 20 22 23 19 20 18 14 14 12 12 11 11 10
8 11 11 10 11 13 15 16 19 17 17 18 18 20 19 19 20 19 18 19 18 18 18 19 20 19 19 19 19 19 19 21 20 20 22 23 18 13 14 13 14 13 12 11 10
11 14 12 11 15 21 17 19 18 17 16 17 18 18 18 20 19 20 18 19 16 16 18 18 19 21 19 19 18 18 19 19 19 21 20 21 20 13 14 13 14 13 11 10 10
12 14 12 12 16 18 20 19 18 18 17 17 18 17 18 19 19 19 19 17 16 16 18 18 20 21 20 20 20 20 19 18 19 19 21 21 18 14 15 13 12 12 11 10 10
14 17 15 14 18 17 20 18 18 17 17 17 17 17 18 19 19 20 19 17 16 16 15 16 20 20 19 18 19 21 21 18 18 20 19 20 17 14 14 13 13 12 11 10 10
14 15 15 19 18 19 19 18 19 19 18 17 18 18 18 21 20 20 19 18 17 16 15 17 21 21 20 20 20 20 20 20 20 18 20 17 16 14 13 13 13 13 11 11 11
15 16 17 17 18 18 18 18 19 19 19 19 19 17 18 19 17 19 18 18 18 17 17 18 21 23 24 20 20 21 19 18 19 18 18 18 18 14 13 12 14 13 12 12 12
12 14 13 16 18 18 18 17 18 17 17 17 17 18 19 18 16 17 16 16 16 18 18 19 20 23 23 23 22 23 21 19 19 17 17 19 16 13 14 13 13 13 12 12 12